User: anonymous   Login
Location: Unspecified
(0.0000°N, 0.0000°E)
Time: 15:07:04
(UTC+00:00)
Language:

USA 188 - Orbit

View from above orbital plane
View from above orbital plane
View from above satellite
View from above satellite

Ground track
Ground track

The orbit data is extracted from the following two-line orbital elements,

1 29241U 06024B   18094.90858362 0.00000000  00000-0  00000-0 0    06
2 29241   6.4906  57.5499 0005069  97.6130 262.4566  0.98854814    08
Epoch (UTC): 04 April 2018 21:48:21
Eccentricity: 0.0005069
inclination: 6.4906°
perigee height: 36166 km
apogee height: 36210 km
right ascension of ascending node: 57.5499°
argument of perigee: 97.6130°
revolutions per day: 0.98854814
mean anomaly at epoch: 262.4566°
orbit number at epoch: 0

The dashed part of the orbit path shows where the satellite is in the earth's shadow,  

DLR